Вернуться в каталог

STARLINK-33977

АктивенСвязьVLEO
NORAD 64344·PAYLOAD·🇺🇸 United States

Запущен Jun 13, 2025 с Vandenberg Space Force Base

Loading…

Ближайшие Пролёты (ближайшие 24 часа)

TLE

СвежийSource: CelesTrak SupGP

Эпоха: Sep 14, 2026, 15:30 UTC

1 64344C 25126A   26257.64631944 -.00044750  00000+0 -15573-2 0  2577
2 64344  70.0002 276.3241 0003099 273.6604 265.6181 15.29590512    15

Отслеживайте STARLINK-33977 в реальном времени с AllMySat

Download on the App Store